[[{"header":{"parameterUnit":"m.s-1","parameterCategory":1,"la1":30.2991,"la2":30.254,"lo1":-89.0895,"lo2":-89.0444,"dy":0.0017,"dx":0.0017,"nx":28,"ny":28,"refTime":"2025-01-11T03:00:00:Z","depth":0,"parameterNumber":2,"parameterNumberName":"U-component_of_WINDS"},"data":[0,0,0,0,0,0,0,0,0,0,0,0,0,0,0,0,0,0,0,0,0,0,0,0,0,0,0,0,0,0,0,0,0,0,0,0,0,0,0,0,0,0,0,0,0,0,0,0,0,0,0,0,0,0,0,0,0,0,4.9111,4.9111,0,4.9146,4.9146,4.9147,4.904,4.9037,4.9034,4.9031,4.9074,4.9078,4.9082,0,0,0,0,0,0,0,0,0,0,0,0,0,4.8959,4.8962,4.9111,4.9111,4.9111,4.9146,4.9146,4.9147,4.9041,4.9037,4.9033,4.9029,4.9072,4.9077,4.9082,0,0,0,0,0,0,0,0,0,0,0,0,0,4.9013,4.8963,4.911,4.9062,4.9058,4.9146,4.9146,4.9147,4.9042,4.9037,4.9032,4.9027,4.9071,4.9077,4.9083,4.9221,0,0,4.9102,4.9105,0,0,0,0,0,0,0,0,4.901,4.9018,4.9069,4.9066,4.9062,4.9083,4.9109,4.9172,4.9043,4.9048,4.903,4.9025,4.9082,4.9087,4.9104,4.9223,4.9225,4.9103,4.9107,4.911,4.9111,0,0,0,0,0,0,0,4.9006,4.9016,4.9125,4.907,4.9065,4.9042,4.9044,4.912,4.9092,4.9047,4.904,4.9045,4.9079,4.9098,4.9105,4.9225,4.9103,4.9108,4.9112,4.9115,4.9461,4.9466,0,0,0,0,0,0,4.9008,4.9014,4.9124,4.9126,4.9023,4.9048,4.9051,4.9082,4.9091,4.9088,4.9049,4.904,4.909,4.9097,4.9106,4.9268,4.911,4.9115,4.9119,4.9456,4.9462,4.9468,0,0,0,0,0,0,4.9005,4.9018,4.9122,4.9068,4.9079,4.9056,4.9092,4.9085,4.9104,4.9092,4.9088,4.9074,4.9086,4.9097,4.9193,4.9268,4.9118,4.9124,4.9449,4.9458,4.9465,4.9595,0,0,0,0,0,0,4.9001,4.9018,4.9068,4.907,4.9082,4.9207,4.9096,4.9089,4.9115,4.9103,4.9114,4.9112,4.9083,4.9184,4.9199,4.9274,4.9129,4.9442,4.9453,4.9462,4.9583,4.9606,4.9625,0,0,0,0,0,4.8996,4.9104,4.9071,4.9085,4.9144,4.9211,4.9219,4.9182,4.9121,4.9173,4.9165,4.9111,4.9258,4.9195,4.9211,4.9289,4.9437,4.945,4.9462,4.9574,4.9602,4.9625,0,0,0,0,0,0,4.9114,4.9103,4.9067,4.9178,4.9196,4.9193,4.9256,4.9212,4.9249,4.9237,4.9192,4.9196,4.9301,4.9305,4.9235,4.9424,4.9338,4.9354,4.9417,4.9444,4.9464,4.9461,4.9134,0,0,0,0,0,4.9153,4.9206,4.9195,4.9294,4.9305,4.928,4.9308,4.9278,4.9295,4.9303,4.9303,4.9324,4.9375,4.9409,4.9455,4.9584,4.9586,4.9646,4.9667,4.9684,4.9699,4.9769,4.9796,4.9508,4.9508,4.9508,0,0,4.9234,4.9235,4.9271,4.9318,4.9328,4.9387,4.9287,4.9352,4.9396,4.9314,4.9404,4.9405,4.9426,4.954,4.9589,4.9546,4.9779,4.97,4.9714,4.9719,4.9784,4.9812,4.9836,4.9516,4.9515,4.9513,0,0,4.9412,4.9417,4.9501,4.9513,4.953,4.9512,4.9533,4.9537,4.9534,4.9623,4.9563,4.9616,4.9704,4.9722,4.9743,4.993,4.9883,4.9947,5.0057,5.0126,5.0148,5.0168,5.0236,5.0261,4.9961,4.9961,4.9962,0,4.9511,4.9594,4.9551,4.962,4.9644,4.957,4.9657,4.9672,4.9704,4.9723,4.9674,4.9784,4.9793,4.991,4.9956,4.9975,4.9999,4.9945,5.0148,5.0168,5.0186,5.025,5.0276,4.9969,4.9968,4.9967,4.9967,0,4.9716,4.9775,4.9842,4.9872,4.9903,4.9982,4.9952,4.999,4.9958,4.9947,5.0041,5.0049,5.0097,5.0122,5.0093,5.0237,5.0209,5.0155,5.0067,5.0221,5.0281,5.0306,4.998,4.9977,4.9975,4.9973,0,0,4.9969,4.9974,5.0,5.0013,5.0027,5.0073,5.015,5.0193,5.0227,5.0253,5.0317,5.0394,5.0344,5.0368,5.034,5.0401,5.055,5.0339,5.0339,5.0379,5.0712,5.0753,5.0782,5.0519,5.0523,5.0527,5.071,0,5.0144,5.0271,5.0235,5.0364,5.042,5.0352,5.0419,5.0436,5.0429,5.0477,5.0469,5.0525,5.0454,5.0468,5.0525,5.052,5.0617,5.0506,5.0581,5.0584,5.0578,5.0813,5.0857,5.1029,5.0733,5.0737,5.074,0,5.0365,5.0397,5.0532,5.0537,5.0559,5.0619,5.0658,5.0704,5.0724,5.0714,5.0741,5.0702,5.078,5.0692,5.0801,5.0727,5.0756,5.0758,5.0764,5.077,5.0672,5.0826,5.1083,5.1109,5.0776,5.0774,5.0771,0,5.0538,5.0614,5.0705,5.0718,5.0727,5.0771,5.0778,5.0792,5.0822,5.0857,5.0876,5.0921,5.0945,5.0982,5.0957,5.0895,5.1071,5.098,5.1068,5.1069,5.1108,5.1106,5.1373,5.1126,5.1126,5.1125,5.1125,0,5.0737,5.0823,5.0782,5.0838,5.0932,5.0891,5.0987,5.0986,5.0999,5.1056,5.1001,5.1056,5.1019,5.1072,5.1053,5.1147,5.1159,5.1155,5.1149,5.116,5.1161,5.1179,5.1167,5.1132,5.113,5.1129,5.1128,0,5.0945,5.0921,5.1015,5.1016,5.1018,5.1088,5.1089,5.1143,5.1131,5.1204,5.1219,5.1202,5.1262,5.124,5.1304,5.1292,5.1412,5.139,5.1405,5.14,5.1488,5.1481,5.1777,5.1815,5.1543,5.1545,5.1548,0,5.1075,5.1138,5.1145,5.1178,5.1187,5.1241,5.127,5.1234,5.1268,5.1296,5.1347,5.1401,5.1442,5.1541,5.1537,5.1586,5.1566,5.1666,5.1573,5.1583,5.1569,5.1566,5.1573,5.1685,5.1688,5.1691,5.1693,0,5.1307,5.1292,5.1335,5.1376,5.1412,5.1442,5.1468,5.1499,5.1464,5.1505,5.1564,5.1596,5.1661,5.1717,5.1762,5.1771,5.1728,5.1723,5.1746,5.1758,5.1764,5.1763,5.1456,5.1716,5.1714,5.1712,5.1711,5.171,5.148,5.1534,5.1548,5.1598,5.1614,5.1639,5.1689,5.1684,5.1732,5.178,5.1757,5.1826,5.1847,5.1902,5.1918,5.1973,5.1935,5.1968,5.1976,5.1985,5.1997,5.1755,5.1982,5.1981,5.198,5.198,5.1979,0,5.1711,5.1716,5.1763,5.18,5.1841,5.1794,5.1821,5.1859,5.1919,5.1941,5.1982,5.2052,5.2106,5.2106,5.2157,5.2202,5.2184,5.2217,5.2214,5.2217,5.2028,5.2003,5.2231,5.2231,5.2231,5.2231,5.2231,5.2231,5.1836,5.1925,5.1912,5.2009,5.2014,5.208,5.2099,5.2124,5.2141,5.222,5.2263,5.2262,5.2276,5.2328,5.2377,5.2376,5.2398,5.2439,5.2431,5.2255,5.223,5.2206,5.2183,5.2444,5.2444,5.2615,5.2617,5.2618]},{"header":{"parameterUnit":"m.s-1","parameterCategory":1,"la1":30.2991,"la2":30.254,"lo1":-89.0895,"lo2":-89.0444,"dy":0.0017,"dx":0.0017,"nx":28,"ny":28,"refTime":"2025-01-11T03:00:00:Z","depth":0,"parameterNumber":3,"parameterNumberName":"V-component_of_WINDS"},"data":[0,0,0,0,0,0,0,0,0,0,0,0,0,0,0,0,0,0,0,0,0,0,0,0,0,0,0,0,0,0,0,0,0,0,0,0,0,0,0,0,0,0,0,0,0,0,0,0,0,0,0,0,0,0,0,0,0,0,-4.786,-4.7862,0,-4.8003,-4.8005,-4.8006,-4.8008,-4.8006,-4.8004,-4.8003,-4.8145,-4.815,-4.8156,0,0,0,0,0,0,0,0,0,0,0,0,0,-4.7586,-4.7591,-4.786,-4.7862,-4.7864,-4.8003,-4.8005,-4.8007,-4.8008,-4.8006,-4.8004,-4.8002,-4.8143,-4.815,-4.8156,0,0,0,0,0,0,0,0,0,0,0,0,0,-4.7714,-4.7592,-4.786,-4.7881,-4.7885,-4.8003,-4.8005,-4.8007,-4.8009,-4.8006,-4.8003,-4.8001,-4.8141,-4.8149,-4.8157,-4.8262,0,0,-4.8182,-4.8186,0,0,0,0,0,0,0,0,-4.7707,-4.7724,-4.7876,-4.788,-4.7884,-4.7985,-4.796,-4.8093,-4.8009,-4.7961,-4.8002,-4.7999,-4.8094,-4.8106,-4.8138,-4.8269,-4.8275,-4.8183,-4.8188,-4.8192,-4.8194,0,0,0,0,0,0,0,-4.7698,-4.7718,-4.7916,-4.7878,-4.7883,-4.7883,-4.7898,-4.7985,-4.8041,-4.7965,-4.7966,-4.7983,-4.8095,-4.813,-4.8142,-4.8277,-4.8183,-4.819,-4.8195,-4.8198,-4.8502,-4.8505,0,0,0,0,0,0,-4.7685,-4.7711,-4.7912,-4.7921,-4.7787,-4.789,-4.7907,-4.7955,-4.804,-4.805,-4.7985,-4.7982,-4.8118,-4.8132,-4.8147,-4.8276,-4.8191,-4.8199,-4.8204,-4.8499,-4.8502,-4.8506,0,0,0,0,0,0,-4.7679,-4.7703,-4.7906,-4.7816,-4.7842,-4.7898,-4.7952,-4.7959,-4.7995,-4.8055,-4.8064,-4.8011,-4.8116,-4.8135,-4.8234,-4.8281,-4.8203,-4.821,-4.8495,-4.85,-4.8504,-4.8534,0,0,0,0,0,0,-4.7671,-4.7701,-4.7742,-4.7817,-4.7847,-4.7992,-4.7955,-4.7964,-4.8009,-4.8007,-4.8082,-4.8091,-4.8115,-4.8222,-4.8242,-4.829,-4.8217,-4.8491,-4.8497,-4.8503,-4.8529,-4.8539,-4.8548,0,0,0,0,0,-4.7662,-4.7744,-4.7744,-4.7768,-4.7899,-4.7995,-4.8011,-4.8039,-4.8013,-4.8054,-4.8093,-4.8089,-4.8272,-4.8232,-4.8255,-4.8306,-4.8488,-4.8495,-4.8502,-4.8525,-4.8537,-4.8548,0,0,0,0,0,0,-4.7671,-4.7754,-4.7755,-4.7864,-4.7923,-4.7995,-4.8047,-4.8051,-4.8116,-4.8111,-4.8141,-4.8158,-4.8257,-4.8291,-4.8245,-4.8413,-4.8377,-4.8389,-4.8386,-4.8399,-4.8408,-4.8397,-4.8224,0,0,0,0,0,-4.7686,-4.7757,-4.7826,-4.7915,-4.7945,-4.7991,-4.8034,-4.805,-4.8111,-4.8135,-4.8181,-4.824,-4.8311,-4.8357,-4.8425,-4.8534,-4.8551,-4.8581,-4.8591,-4.8598,-4.8608,-4.8669,-4.8683,-4.8529,-4.8529,-4.8529,0,0,-4.7717,-4.7771,-4.7814,-4.7918,-4.7965,-4.8038,-4.8012,-4.8089,-4.8144,-4.8146,-4.8243,-4.8279,-4.8347,-4.8451,-4.85,-4.8483,-4.8654,-4.8607,-4.8612,-4.8618,-4.8677,-4.8692,-4.8705,-4.8534,-4.8533,-4.8532,0,0,-4.7811,-4.7859,-4.7939,-4.7988,-4.806,-4.8091,-4.811,-4.8183,-4.8207,-4.8305,-4.8309,-4.8374,-4.8495,-4.8543,-4.8584,-4.8698,-4.8696,-4.8719,-4.8767,-4.8827,-4.8839,-4.885,-4.889,-4.8905,-4.8729,-4.8729,-4.8729,0,-4.784,-4.7951,-4.798,-4.8059,-4.8104,-4.8112,-4.8194,-4.8239,-4.8329,-4.836,-4.8341,-4.8495,-4.8541,-4.8657,-4.8685,-4.8718,-4.874,-4.871,-4.8835,-4.8846,-4.8857,-4.8896,-4.8911,-4.8731,-4.8731,-4.8731,-4.8731,0,-4.7983,-4.806,-4.8116,-4.8205,-4.8257,-4.8336,-4.8377,-4.8426,-4.8438,-4.8471,-4.8571,-4.8626,-4.8707,-4.8736,-4.8747,-4.8854,-4.8842,-4.8829,-4.8793,-4.8873,-4.891,-4.8926,-4.8735,-4.8734,-4.8733,-4.8732,0,0,-4.8085,-4.8191,-4.8211,-4.8252,-4.8333,-4.8393,-4.8473,-4.8553,-4.8595,-4.8657,-4.8725,-4.8828,-4.8817,-4.8863,-4.888,-4.8932,-4.902,-4.8913,-4.8915,-4.893,-4.9141,-4.915,-4.9167,-4.902,-4.9023,-4.9025,-4.9135,0,-4.8188,-4.8331,-4.8361,-4.8484,-4.8556,-4.8565,-4.8635,-4.8692,-4.8725,-4.879,-4.8826,-4.8899,-4.8879,-4.8906,-4.8958,-4.8998,-4.9062,-4.899,-4.9082,-4.9085,-4.9064,-4.9187,-4.9197,-4.9298,-4.915,-4.9153,-4.9154,0,-4.8326,-4.8394,-4.8525,-4.8599,-4.863,-4.8692,-4.8768,-4.883,-4.8895,-4.8916,-4.8968,-4.898,-4.9063,-4.9025,-4.9139,-4.909,-4.9129,-4.9155,-4.9159,-4.9168,-4.9124,-4.9199,-4.9331,-4.9346,-4.9178,-4.9176,-4.9174,0,-4.8387,-4.8511,-4.8607,-4.8641,-4.8729,-4.8773,-4.8811,-4.8873,-4.892,-4.8987,-4.9017,-4.9092,-4.9133,-4.919,-4.9222,-4.9191,-4.9335,-4.9299,-4.9353,-4.9353,-4.9382,-4.938,-4.9522,-4.9408,-4.9408,-4.9408,-4.9408,0,-4.8499,-4.8579,-4.8636,-4.8694,-4.8784,-4.8817,-4.8905,-4.8943,-4.8999,-4.9064,-4.9076,-4.9137,-4.9176,-4.9243,-4.9268,-4.9359,-4.9377,-4.9396,-4.9401,-4.9395,-4.9392,-4.942,-4.9414,-4.9412,-4.9411,-4.941,-4.941,0,-4.8582,-4.8623,-4.8728,-4.8803,-4.8824,-4.8887,-4.895,-4.9007,-4.9041,-4.9124,-4.9145,-4.9198,-4.9277,-4.9315,-4.9412,-4.9429,-4.9533,-4.9534,-4.9511,-4.9513,-4.9566,-4.956,-4.9731,-4.9755,-4.9625,-4.9626,-4.9627,0,-4.865,-4.8712,-4.8794,-4.884,-4.888,-4.8953,-4.9001,-4.9036,-4.9086,-4.9165,-4.9213,-4.9293,-4.9358,-4.9484,-4.953,-4.9605,-4.9608,-4.9662,-4.9619,-4.961,-4.9608,-4.9604,-4.9611,-4.967,-4.9671,-4.9672,-4.9673,0,-4.8766,-4.8784,-4.8854,-4.8932,-4.8989,-4.9052,-4.9113,-4.9149,-4.9194,-4.9249,-4.9331,-4.9382,-4.9483,-4.9562,-4.964,-4.9678,-4.9683,-4.9687,-4.9703,-4.9696,-4.9681,-4.969,-4.9532,-4.9682,-4.9681,-4.9681,-4.968,-4.968,-4.8844,-4.89,-4.8967,-4.9045,-4.9095,-4.9152,-4.921,-4.9252,-4.9321,-4.9406,-4.9423,-4.951,-4.9574,-4.968,-4.9721,-4.9789,-4.9777,-4.9801,-4.9807,-4.9812,-4.9815,-4.9671,-4.9803,-4.9803,-4.9803,-4.9803,-4.9803,0,-4.8961,-4.9005,-4.9076,-4.9163,-4.9224,-4.9225,-4.9293,-4.9344,-4.942,-4.948,-4.9546,-4.964,-4.9717,-4.977,-4.9848,-4.9893,-4.9897,-4.9912,-4.9909,-4.9918,-4.9821,-4.9799,-4.9907,-4.9907,-4.9907,-4.9907,-4.9907,-4.9907,-4.9029,-4.9124,-4.915,-4.927,-4.9314,-4.94,-4.9439,-4.9492,-4.954,-4.9645,-4.971,-4.9745,-4.9802,-4.9885,-4.9956,-4.9969,-4.9997,-5.0013,-5.0026,-4.9935,-4.9924,-4.9914,-4.9893,-5.0019,-5.0019,-5.0116,-5.0117,-5.0118]}]]